Time,TemperatureF,DewpointF,PressureIn,WindDirection,WindDirectionDegrees,WindSpeedMPH,WindSpeedGustMPH,Humidity,HourlyPrecipIn,Conditions,Clouds,dailyrainin,SoftwareType,DateUTC
2013-10-08 00:00:00,72.8,22.0,29.78,East,79,3.0,4.0,15,0.00,,,0.00,weatherlink.com 1.10,2013-10-08 07:00:00,
2013-10-08 00:15:00,73.6,21.0,29.78,ENE,69,2.0,3.0,14,0.00,,,0.00,weatherlink.com 1.10,2013-10-08 07:15:00,
2013-10-08 00:30:00,73.5,21.0,29.78,East,81,3.0,4.0,14,0.00,,,0.00,weatherlink.com 1.10,2013-10-08 07:30:00,
2013-10-08 00:45:00,73.2,21.0,29.78,East,90,3.0,4.0,14,0.00,,,0.00,weatherlink.com 1.10,2013-10-08 07:45:00,
2013-10-08 01:00:00,72.9,23.0,29.78,NE,53,2.0,3.0,15,0.00,,,0.00,weatherlink.com 1.10,2013-10-08 08:00:00,
2013-10-08 01:15:00,71.4,23.0,29.79,WSW,242,2.0,3.0,16,0.00,,,0.00,weatherlink.com 1.10,2013-10-08 08:15:00,
2013-10-08 01:30:00,70.8,22.0,29.79,ENE,64,1.0,2.0,16,0.00,,,0.00,weatherlink.com 1.10,2013-10-08 08:30:00,
2013-10-08 01:45:00,69.7,23.0,29.78,NNE,30,3.0,3.0,17,0.00,,,0.00,weatherlink.com 1.10,2013-10-08 08:45:00,
2013-10-08 02:00:00,71.0,22.0,29.78,ENE,65,2.0,5.0,16,0.00,,,0.00,weatherlink.com 1.10,2013-10-08 09:00:00,
2013-10-08 02:16:00,68.8,22.0,29.78,SE,124,1.0,1.0,17,0.00,,,0.00,weatherlink.com 1.10,2013-10-08 09:16:00,
2013-10-08 02:31:00,68.9,22.0,29.78,East,81,0.0,1.0,17,0.00,,,0.00,weatherlink.com 1.10,2013-10-08 09:31:00,
2013-10-08 02:46:00,67.6,22.0,29.78,West,278,0.0,1.0,18,0.00,,,0.00,weatherlink.com 1.10,2013-10-08 09:46:00,
2013-10-08 03:01:00,66.6,23.0,29.77,NNE,24,0.0,2.0,19,0.00,,,0.00,weatherlink.com 1.10,2013-10-08 10:01:00,
2013-10-08 03:16:00,66.1,24.0,29.77,NNE,30,1.0,4.0,20,0.00,,,0.00,weatherlink.com 1.10,2013-10-08 10:16:00,
2013-10-08 03:31:00,65.4,25.0,29.76,NE,38,1.0,1.0,22,0.00,,,0.00,weatherlink.com 1.10,2013-10-08 10:31:00,
2013-10-08 03:46:00,66.6,23.0,29.75,East,88,3.0,3.0,19,0.00,,,0.00,weatherlink.com 1.10,2013-10-08 10:46:00,
2013-10-08 04:01:00,70.8,22.0,29.75,ENE,75,6.0,8.0,16,0.00,,,0.00,weatherlink.com 1.10,2013-10-08 11:01:00,
2013-10-08 04:16:00,72.6,22.0,29.75,East,86,2.0,8.0,15,0.00,,,0.00,weatherlink.com 1.10,2013-10-08 11:16:00,
2013-10-08 04:31:00,72.7,22.0,29.75,ENE,72,5.0,8.0,15,0.00,,,0.00,weatherlink.com 1.10,2013-10-08 11:31:00,
2013-10-08 04:46:00,70.7,22.0,29.75,SE,136,3.0,7.0,16,0.00,,,0.00,weatherlink.com 1.10,2013-10-08 11:46:00,
2013-10-08 05:01:00,69.5,23.0,29.74,SE,139,0.0,3.0,17,0.00,,,0.00,weatherlink.com 1.10,2013-10-08 12:01:00,
2013-10-08 05:16:00,64.7,33.0,29.75,West,279,4.0,7.0,31,0.00,,,0.00,weatherlink.com 1.10,2013-10-08 12:16:00,
2013-10-08 05:31:00,61.6,34.0,29.76,North,360,1.0,5.0,35,0.00,,,0.00,weatherlink.com 1.10,2013-10-08 12:31:00,
2013-10-08 05:46:00,61.9,33.0,29.77,NNW,339,4.0,5.0,34,0.00,,,0.00,weatherlink.com 1.10,2013-10-08 12:46:00,
2013-10-08 06:01:00,62.8,32.0,29.77,NNE,28,4.0,5.0,31,0.00,,,0.00,weatherlink.com 1.10,2013-10-08 13:01:00,
2013-10-08 06:16:00,65.2,28.0,29.76,ENE,66,2.0,4.0,25,0.00,,,0.00,weatherlink.com 1.10,2013-10-08 13:16:00,
2013-10-08 06:31:00,66.4,26.0,29.76,SSE,147,0.0,4.0,22,0.00,,,0.00,weatherlink.com 1.10,2013-10-08 13:31:00,
2013-10-08 06:46:00,65.5,24.0,29.77,East,90,2.0,3.0,21,0.00,,,0.00,weatherlink.com 1.10,2013-10-08 13:46:00,
2013-10-08 07:01:00,66.3,25.0,29.76,ENE,74,2.0,3.0,21,0.00,,,0.00,weatherlink.com 1.10,2013-10-08 14:01:00,
2013-10-08 07:16:00,66.6,28.0,29.77,WSW,256,0.0,2.0,23,0.00,,,0.00,weatherlink.com 1.10,2013-10-08 14:16:00,
2013-10-08 07:31:00,64.3,34.0,29.78,NW,326,1.0,6.0,32,0.00,,,0.00,weatherlink.com 1.10,2013-10-08 14:31:00,
2013-10-08 07:46:00,63.9,34.0,29.77,NE,44,3.0,3.0,33,0.00,,,0.00,weatherlink.com 1.10,2013-10-08 14:46:00,
2013-10-08 08:01:00,66.7,32.0,29.78,NE,41,1.0,3.0,28,0.00,,,0.00,weatherlink.com 1.10,2013-10-08 15:01:00,
2013-10-08 08:16:00,70.0,31.0,29.78,NE,40,0.0,0.0,24,0.00,,,0.00,weatherlink.com 1.10,2013-10-08 15:16:00,
2013-10-08 08:31:00,69.4,34.0,29.79,WSW,255,2.0,4.0,27,0.00,,,0.00,weatherlink.com 1.10,2013-10-08 15:31:00,
2013-10-08 08:46:00,68.4,31.0,29.79,West,259,3.0,3.0,25,0.00,,,0.00,weatherlink.com 1.10,2013-10-08 15:46:00,
2013-10-08 09:01:00,68.4,32.0,29.80,WSW,240,1.0,5.0,26,0.00,,,0.00,weatherlink.com 1.10,2013-10-08 16:01:00,
2013-10-08 09:16:00,69.7,32.0,29.79,West,279,2.0,4.0,25,0.00,,,0.00,weatherlink.com 1.10,2013-10-08 16:16:00,
2013-10-08 09:31:00,70.8,32.0,29.80,WSW,258,1.0,4.0,24,0.00,,,0.00,weatherlink.com 1.10,2013-10-08 16:31:00,
2013-10-08 09:46:00,71.3,34.0,29.79,WNW,297,0.0,3.0,25,0.00,,,0.00,weatherlink.com 1.10,2013-10-08 16:46:00,
2013-10-08 10:01:00,74.2,33.0,29.79,SW,219,0.0,2.0,22,0.00,,,0.00,weatherlink.com 1.10,2013-10-08 17:01:00,
2013-10-08 10:16:00,76.4,32.0,29.79,East,96,0.0,3.0,20,0.00,,,0.00,weatherlink.com 1.10,2013-10-08 17:16:00,
2013-10-08 10:31:00,79.2,32.0,29.78,SSE,159,1.0,3.0,18,0.00,,,0.00,weatherlink.com 1.10,2013-10-08 17:31:00,
2013-10-08 10:46:00,81.3,31.0,29.78,SSE,160,2.0,4.0,16,0.00,,,0.00,weatherlink.com 1.10,2013-10-08 17:46:00,
2013-10-08 11:01:00,82.6,30.0,29.77,West,266,1.0,4.0,15,0.00,,,0.00,weatherlink.com 1.10,2013-10-08 18:01:00,
2013-10-08 11:16:00,84.3,26.0,29.77,ESE,117,2.0,6.0,12,0.00,,,0.00,weatherlink.com 1.10,2013-10-08 18:16:00,
2013-10-08 11:31:00,85.5,25.0,29.76,SSE,159,3.0,8.0,11,0.00,,,0.00,weatherlink.com 1.10,2013-10-08 18:31:00,
2013-10-08 11:47:00,87.2,29.0,29.76,SE,131,5.0,5.0,12,0.00,,,0.00,weatherlink.com 1.10,2013-10-08 18:47:00,
2013-10-08 12:02:00,85.2,23.0,29.75,SE,124,2.0,11.0,10,0.00,,,0.00,weatherlink.com 1.10,2013-10-08 19:02:00,
2013-10-08 12:17:00,86.8,19.0,29.74,South,179,10.0,11.0,8,0.00,,,0.00,weatherlink.com 1.10,2013-10-08 19:17:00,
2013-10-08 12:32:00,86.3,24.0,29.73,East,79,15.0,15.0,10,0.00,,,0.00,weatherlink.com 1.10,2013-10-08 19:32:00,
2013-10-08 12:47:00,86.2,21.0,29.73,SE,124,11.0,13.0,9,0.00,,,0.00,weatherlink.com 1.10,2013-10-08 19:47:00,
2013-10-08 13:02:00,86.1,21.0,29.72,East,101,10.0,17.0,9,0.00,,,0.00,weatherlink.com 1.10,2013-10-08 20:02:00,
2013-10-08 13:17:00,86.5,21.0,29.71,ESE,113,11.0,16.0,9,0.00,,,0.00,weatherlink.com 1.10,2013-10-08 20:17:00,
2013-10-08 13:32:00,87.2,22.0,29.70,ESE,116,11.0,18.0,9,0.00,,,0.00,weatherlink.com 1.10,2013-10-08 20:32:00,
2013-10-08 13:47:00,87.4,22.0,29.70,East,79,10.0,15.0,9,0.00,,,0.00,weatherlink.com 1.10,2013-10-08 20:47:00,
2013-10-08 14:02:00,87.9,22.0,29.69,ESE,122,5.0,15.0,9,0.00,,,0.00,weatherlink.com 1.10,2013-10-08 21:02:00,
2013-10-08 14:17:00,88.6,20.0,29.68,South,180,7.0,15.0,8,0.00,,,0.00,weatherlink.com 1.10,2013-10-08 21:17:00,
2013-10-08 14:32:00,89.0,20.0,29.68,South,190,5.0,11.0,8,0.00,,,0.00,weatherlink.com 1.10,2013-10-08 21:32:00,
2013-10-08 14:47:00,89.2,23.0,29.67,SSE,155,6.0,14.0,9,0.00,,,0.00,weatherlink.com 1.10,2013-10-08 21:47:00,
2013-10-08 15:02:00,90.0,24.0,29.67,SSW,201,8.0,13.0,9,0.00,,,0.00,weatherlink.com 1.10,2013-10-08 22:02:00,
2013-10-08 15:17:00,89.2,26.0,29.66,SSE,166,6.0,14.0,10,0.00,,,0.00,weatherlink.com 1.10,2013-10-08 22:17:00,
2013-10-08 15:32:00,89.2,26.0,29.66,ESE,120,6.0,12.0,10,0.00,,,0.00,weatherlink.com 1.10,2013-10-08 22:32:00,
2013-10-08 15:47:00,89.5,26.0,29.66,South,179,8.0,13.0,10,0.00,,,0.00,weatherlink.com 1.10,2013-10-08 22:47:00,
2013-10-08 16:02:00,89.4,26.0,29.65,SE,144,3.0,12.0,10,0.00,,,0.00,weatherlink.com 1.10,2013-10-08 23:02:00,
2013-10-08 16:17:00,89.0,26.0,29.65,SSE,152,6.0,14.0,10,0.00,,,0.00,weatherlink.com 1.10,2013-10-08 23:17:00,
2013-10-08 16:32:00,89.9,26.0,29.64,SE,139,7.0,8.0,10,0.00,,,0.00,weatherlink.com 1.10,2013-10-08 23:32:00,
2013-10-08 16:47:00,89.0,26.0,29.64,SE,141,4.0,10.0,10,0.00,,,0.00,weatherlink.com 1.10,2013-10-08 23:47:00,
2013-10-08 17:02:00,89.1,26.0,29.64,SSW,194,5.0,11.0,10,0.00,,,0.00,weatherlink.com 1.10,2013-10-09 00:02:00,
2013-10-08 17:17:00,88.1,22.0,29.63,SSE,156,8.0,10.0,9,0.00,,,0.00,weatherlink.com 1.10,2013-10-09 00:17:00,
2013-10-08 17:32:00,88.6,23.0,29.63,SE,138,6.0,8.0,9,0.00,,,0.00,weatherlink.com 1.10,2013-10-09 00:32:00,
2013-10-08 17:47:00,87.9,22.0,29.62,SE,143,4.0,12.0,9,0.00,,,0.00,weatherlink.com 1.10,2013-10-09 00:47:00,
2013-10-08 18:02:00,87.0,24.0,29.62,SE,124,2.0,11.0,10,0.00,,,0.00,weatherlink.com 1.10,2013-10-09 01:02:00,
2013-10-08 18:17:00,85.8,25.0,29.61,ESE,121,4.0,11.0,11,0.00,,,0.00,weatherlink.com 1.10,2013-10-09 01:17:00,
2013-10-08 18:32:00,84.8,25.0,29.61,SE,130,3.0,8.0,11,0.00,,,0.00,weatherlink.com 1.10,2013-10-09 01:32:00,
2013-10-08 18:47:00,83.8,24.0,29.61,SSW,211,2.0,6.0,11,0.00,,,0.00,weatherlink.com 1.10,2013-10-09 01:47:00,
2013-10-08 19:02:00,82.6,25.0,29.61,SE,124,2.0,3.0,12,0.00,,,0.00,weatherlink.com 1.10,2013-10-09 02:02:00,
2013-10-08 19:17:00,82.1,25.0,29.61,ESE,118,0.0,4.0,12,0.00,,,0.00,weatherlink.com 1.10,2013-10-09 02:17:00,
2013-10-08 19:32:00,81.6,24.0,29.61,SE,136,3.0,5.0,12,0.00,,,0.00,weatherlink.com 1.10,2013-10-09 02:32:00,
2013-10-08 19:47:00,81.6,24.0,29.61,ESE,119,2.0,6.0,12,0.00,,,0.00,weatherlink.com 1.10,2013-10-09 02:47:00,
2013-10-08 20:02:00,81.8,24.0,29.61,SSE,148,2.0,5.0,12,0.00,,,0.00,weatherlink.com 1.10,2013-10-09 03:02:00,
2013-10-08 20:17:00,81.8,24.0,29.61,South,177,4.0,9.0,12,0.00,,,0.00,weatherlink.com 1.10,2013-10-09 03:17:00,
2013-10-08 20:32:00,80.9,26.0,29.61,East,101,1.0,3.0,13,0.00,,,0.00,weatherlink.com 1.10,2013-10-09 03:32:00,
2013-10-08 20:47:00,80.8,26.0,29.61,ESE,108,1.0,4.0,13,0.00,,,0.00,weatherlink.com 1.10,2013-10-09 03:47:00,
2013-10-08 21:02:00,79.4,26.0,29.62,ENE,77,5.0,6.0,14,0.00,,,0.00,weatherlink.com 1.10,2013-10-09 04:02:00,
2013-10-08 21:17:00,78.7,26.0,29.62,NE,56,4.0,5.0,14,0.00,,,0.00,weatherlink.com 1.10,2013-10-09 04:17:00,
2013-10-08 21:32:00,78.8,26.0,29.61,ENE,62,3.0,5.0,14,0.00,,,0.00,weatherlink.com 1.10,2013-10-09 04:32:00,
2013-10-08 21:48:00,79.0,26.0,29.61,ENE,68,2.0,4.0,14,0.00,,,0.00,weatherlink.com 1.10,2013-10-09 04:48:00,
2013-10-08 22:03:00,79.0,26.0,29.61,ENE,66,4.0,4.0,14,0.00,,,0.00,weatherlink.com 1.10,2013-10-09 05:03:00,
2013-10-08 22:18:00,77.7,25.0,29.60,NE,56,3.0,6.0,14,0.00,,,0.00,weatherlink.com 1.10,2013-10-09 05:18:00,
2013-10-08 22:33:00,76.5,25.0,29.60,ENE,64,3.0,5.0,15,0.00,,,0.00,weatherlink.com 1.10,2013-10-09 05:33:00,
2013-10-08 22:48:00,75.5,25.0,29.60,East,79,5.0,6.0,15,0.00,,,0.00,weatherlink.com 1.10,2013-10-09 05:48:00,
2013-10-08 23:03:00,76.2,24.0,29.60,NE,52,4.0,8.0,14,0.00,,,0.00,weatherlink.com 1.10,2013-10-09 06:03:00,
2013-10-08 23:19:00,76.8,24.0,29.60,ENE,66,6.0,8.0,14,0.00,,,0.00,weatherlink.com 1.10,2013-10-09 06:19:00,
2013-10-08 23:33:00,76.4,24.0,29.59,ENE,64,3.0,5.0,14,0.00,,,0.00,weatherlink.com 1.10,2013-10-09 06:33:00,
2013-10-08 23:48:00,76.6,24.0,29.59,East,81,3.0,5.0,14,0.00,,,0.00,weatherlink.com 1.10,2013-10-09 06:48:00,